Overview Statistics Trail Chart Weather Telemetry Raw packets
 

This is the latest recevied weather packets stored in our database for station/object GBTWP-2. If no packets are shown the sender has not sent any weather packets the latest 10 day(s).

<< 17 18 19 20 21 22 23 >>
Time Temp. Humidity Pressure Rain* Wind** Luminosity Snow
1788559920 25.56° C 79% 1016.9 hPa 0 mm - 100 W/m² -
1788559618 25.56° C 79% 1017 hPa 0 mm - 88 W/m² -
1788559318 25.56° C 79% 1016.8 hPa 0 mm - 94 W/m² -
1788559020 25.56° C 79% 1016.8 hPa 0 mm - 107 W/m² -
1788558719 25.56° C 78% 1016.9 hPa 0 mm - 118 W/m² -
1788558441 25.56° C 79% 1016.9 hPa 0 mm - 119 W/m² -
1788558117 25.56° C 79% 1016.9 hPa 0 mm - 99 W/m² -
1788557821 25.56° C 78% 1016.9 hPa 0 mm - 106 W/m² -
1788557518 25.56° C 79% 1016.8 hPa 0 mm - 100 W/m² -
1788557221 25.56° C 79% 1016.7 hPa 0 mm - 117 W/m² -
1788556917 25.56° C 78% 1016.7 hPa 0 mm - 99 W/m² -
1788556627 25.56° C 78% 1016.7 hPa 0 mm - 112 W/m² -
1788556318 25.56° C 77% 1016.4 hPa 0 mm - 138 W/m² -
1788556020 25.56° C 78% 1016.4 hPa 0 mm - 141 W/m² -
1788555719 25.56° C 77% 1016.4 hPa 0 mm - 130 W/m² -
1788555420 25.56° C 77% 1016.5 hPa 0 mm - 136 W/m² -
1788555119 26.11° C 77% 1016.5 hPa 0 mm - 140 W/m² -
1788554842 25.56° C 78% 1016.6 hPa 0 mm - 160 W/m² -
1788554518 25.56° C 79% 1016.8 hPa 0 mm - 202 W/m² -
1788554218 25.56° C 79% 1016.7 hPa 0 mm - 212 W/m² -
1788553918 25.56° C 78% 1016.7 hPa 0 mm - 209 W/m² -
1788553620 25.56° C 77% 1016.4 hPa 0 mm - 282 W/m² -
1788553319 25.56° C 77% 1016.6 hPa 0 mm - 152 W/m² -
1788553022 26.11° C 75% 1016.7 hPa 0 mm - 176 W/m² -
1788552720 26.67° C 75% 1016.6 hPa 0 mm - 332 W/m² -

* Rain latest hour (hover to see other rain measurements)
** Current wind speed in m/s (hover to see current wind gust speed)